Notices

What's New in latest Release from April 7th, 2021:

- Updated Glossary, including Speed of Maximum Gust, and Total Hourly Precipitation

- Updated national and regional climate services offices contacts and prices information

- Addition of station inventory lists for 1981-2010, 1971-2000, and 1961-1990 Normals.

If you haven't already, please take our survey and provide feedback about our website: https://eccc.sondage-survey.ca/f/LanguageSelection.aspx?s=442ca660-fcf1-47c0-95a9-59707d6fd709

Hourly Data Report for April 19, 2021

CHATHAM KENT
ONTARIO
Current Station Operator: NAVCAN

42°18'21.000" N
82°04'57.000" W
196.60 m
6131414
YCK

Download Data

Hourly Data (April 2021)
Hourly Data Report for April 19, 2021
TIME
LST
Temp Definition
°C
Dew Point Definition
°C
Rel Hum Definition
%
Precip. Amount Definition
mm

Wind Dir Definition
10's deg

Wind Spd Definition
km/h
Visibility Definition
km
Stn Press Definition
kPa
Hmdx Definition


Wind Chill Definition


Weather Definition


00:00 6.6 5.1 90 0.0 19 13 16.1 98.73     LegendNANA
01:00 4.8 3.8 93 0.0 21 11 16.1 98.71     LegendNANA
02:00 4.7 4.0 95 0.0 23 13 16.1 98.66     LegendNANA
03:00 6.0 4.8 92 0.0 21 11 16.1 98.64     LegendNANA
04:00 5.7 4.4 91 0.0 24 13 16.1 98.63     LegendNANA
05:00 7.6 5.4 86 0.0 22 17 16.1 98.60     LegendNANA
06:00 7.4 4.7 83 0.0 21 15 16.1 98.61     LegendNANA
07:00 8.7 5.8 82 0.0 22 11 16.1 98.63     LegendNANA
08:00 9.9 6.6 80 0.0 21 17 16.1 98.62     LegendNANA
09:00 12.1 6.3 68 0.0 22 22 16.1 98.56     LegendNANA
10:00 13.5 6.1 61 0.0 22 28 16.1 98.54     LegendNANA
11:00 14.6 5.9 56 0.0 22 30 16.1 98.51     LegendNANA
12:00 15.3 5.2 51 0.0 22 35 16.1 98.45     LegendNANA
13:00 15.9 5.1 49 0.0 22 35 16.1 98.39     LegendNANA
14:00 15.7 4.4 47 0.0 21 30 16.1 98.36     LegendNANA
15:00 15.9 3.8 44 0.0 22 32 16.1 98.32     LegendNANA
16:00 16.0 0.7 35 0.0 27 39 16.1 98.33     LegendNANA
17:00 13.5 4.9 56 0.0 30 37 16.1 98.47     LegendNANA
18:00 10.8 6.2 73 0.0 30 35 16.1 98.57     Rain
19:00 9.2 5.8 79 0.0 29 28 16.1 98.59     Rain
20:00 7.8 5.5 85 0.2 30 24 16.1 98.67     Rain
21:00 6.4 4.1 85 0.5 31 21 16.1 98.70     Rain
22:00 5.9 2.0 76 0.2 31 32 16.1 98.77     Rain
23:00 5.6 3.0 83 0.2 28 15 16.1 98.83     Rain

Notes on Data Quality.

Legend

  • E = Estimated
  • M = Missing
  • NA = Not Available*
  • [empty] = Indicates an unobserved value
Date modified: